Flag for Congo Weather past 2 weeks in Brazzaville, Congo

Now
77 °F

Passing clouds.


Feels Like: 79 °F
Forecast: 73 / 85 °F
Wind: 7 mph from West

Location: Brazzaville / Maya-Maya

Current Time: Dec 21, 2014 at 1:52:12 PM

Latest Report: Dec 21, 2014 at 1:00 PM


Visibility: N/A

Pressure: 29.92 "Hg

Humidity: 79%

Dew point: 70 °F

Location of BrazzavilleLocation

Historic Weather in Brazzaville — Graph

°F

Brazzaville temperature yesterday

Maximum temperature yesterday: 93 °F (at 4:00 PM)
Minimum temperature yesterday: 75 °F (at 4:00 AM)
Average temperature yesterday: 83 °F

Past Weeks' High & Low Weather Summary

 TemperatureHumidityPressure
High93 °F (Dec 20, 4:00 PM)94% (Dec 7, 4:00 AM)30.01 "Hg (Dec 7, 4:00 AM)
Low70 °F (Dec 8, 4:00 AM)46% (Dec 8, 3:00 PM)29.74 "Hg (Dec 13, 4:00 PM)
Average79 °F79%29.90 "Hg
* Reported Dec 6 12:00 Noon — Dec 21 12:00 Noon, Brazzaville, Weather by CustomWeather, © 2014

Note: Actual official high and low records may vary slightly from our data, if they occured in-between our weather recording intervals... More about our weather records

Advertising

Brazzaville weather history for previous 24 hours

 ConditionsComfort  
Time TempWeatherWind HumidityBarometerVisibility
12:00 PM
Dec 21
79 °FPassing clouds.6 mph79%29.95 "HgN/A
11:00 AM75 °FScattered clouds.10 mph83%30.01 "HgN/A
10:00 AM72 °FThunderstorms. Partly sunny.13 mph88%30.01 "HgN/A
9:55 AM72 °FThunderstorms. Partly sunny.13 mph88%30.01 "HgN/A
9:00 AM77 °FPartly sunny.1 mph79%30.01 "Hg5 mi
8:00 AM77 °FPartly sunny.No wind79%30.01 "Hg5 mi
7:00 AM75 °FPartly sunny.2 mph83%29.95 "Hg5 mi
6:00 AM73 °FClear.3 mph89%29.92 "Hg5 mi
5:00 AM73 °FClear.3 mph89%29.92 "Hg5 mi
4:00 AM73 °FClear.2 mph89%29.89 "Hg5 mi
3:00 AM75 °FClear.3 mph89%29.89 "Hg5 mi
2:00 AM75 °FPassing clouds.3 mph89%29.92 "Hg5 mi
1:00 AM75 °FPassing clouds.1 mph89%29.92 "Hg5 mi
12:00 AM77 °FPassing clouds.5 mph83%29.92 "Hg5 mi
11:00 PM
Dec 20
79 °FThunderstorms. Passing clouds.6 mph74%29.92 "Hg5 mi
10:00 PM79 °FThunderstorms. Passing clouds.2 mph74%29.95 "Hg5 mi
9:00 PM79 °FThunderstorms. Passing clouds.2 mph79%29.89 "Hg5 mi
8:00 PM79 °FThunderstorms. Passing clouds.6 mph79%29.89 "Hg5 mi
7:00 PM82 °FThunderstorms. Passing clouds.9 mph66%29.83 "HgN/A
6:00 PM90 °FPassing clouds.3 mph55%29.80 "HgN/A
5:00 PM91 °FPassing clouds.6 mph52%29.80 "HgN/A
4:00 PM93 °FPassing clouds.5 mph47%29.80 "HgN/A
3:00 PM91 °FPassing clouds.6 mph49%29.83 "Hg5 mi
2:00 PM91 °FPassing clouds.3 mph49%29.86 "Hg5 mi
1:00 PM90 °FScattered clouds.3 mph52%29.89 "Hg5 mi
Weather by CustomWeather, © 2014

See weather overviewHow to use our weather pages